Simultaneous Nadir Overpasses (SNOs) Predictions

Prediction of SNOs over PacNW region [( 10.00, 139.50) to ( 22.70, 165.60)] between AQUA and NPP Satellites:

Table of predicted SNOs over PacNW region for the next 30.0 days since TLE Epoch: 4/27/2018
Index Date (AQUA) Time (AQUA) AQUA Lat,Lon Date (NPP) Time (NPP) NPP Lat,Lon Distance(km) Time Diff (sec)
1 05/03/2018 15:59:56 22.63, 147.48 05/03/2018 16:01:39 23.26, 144.59 304.40 103
2 05/11/2018 15:10:21 22.62, 159.87 05/11/2018 15:10:57 23.18, 157.26 274.73 36
3 05/19/2018 15:59:37 22.61, 147.54 05/19/2018 16:01:41 23.26, 144.59 310.46 124




NCC Satellite Simultaneous Nadir Overpasses (SNOs) Prediction Service
